Northfield, Minnesota, United States (55057)
Lat: 44.46N, Lon: 93.16W
Wx Zone: MNZ077
Local Info
Past Weather Observations for Today

NOTE: This archive is for the closest National Weather Service station to Northfield. Information may differ from the station used for current weather conditions.

Click here for Long-term Archive

Time Weather Temperature Dewpoint Humidity Pressure Winds Precip Visibility
14:33
Overcast
64°F / 18°C 54°F / 12°C 68% 29.92 in
(1013 mb)
SSW 8.1 mph
(SSW 13 kph)
- 10SM
14:13
Overcast
64°F / 18°C 52°F / 11°C 64% 29.92 in
(1013 mb)
SSW 12.7 mph
(SSW 20 kph)
- 10SM
14:00
Overcast
64°F / 18°C 52°F / 11°C 64% 29.92 in
(1013 mb)
SSW 11.5 mph
(SSW 19 kph)
- 10SM
12:59
Mostly Cloudy
66°F / 19°C 52°F / 11°C 60% 29.92 in
(1013 mb)
SSW 16.1 mph
(SSW 26 kph)
- 10SM
12:46
Mostly Cloudy
70°F / 21°C 54°F / 12°C 57% 29.92 in
(1013 mb)
SSW 15 mph
(SSW 24 kph)
- 10SM
12:33
Overcast
70°F / 21°C 54°F / 12°C 57% 29.92 in
(1013 mb)
SSW 16.1 mph
(SSW 26 kph)
- 10SM
12:13
Mostly Cloudy
68°F / 20°C 54°F / 12°C 60% 29.92 in
(1013 mb)
W 12.7 mph
(W 20 kph)
- 10SM
11:54
Clear
68°F / 20°C 52°F / 11°C 56% 29.92 in
(1013 mb)
W 16.1 mph
(W 26 kph)
- 10SM
11:33
Clear
68°F / 20°C 54°F / 12°C 60% 29.92 in
(1013 mb)
W 16.1 mph
(W 26 kph)
- 10SM
11:13
Clear
66°F / 19°C 54°F / 12°C 64% 29.92 in
(1013 mb)
SSW 11.5 mph
(SSW 19 kph)
- 10SM
10:53
Clear
66°F / 19°C 54°F / 12°C 64% 29.92 in
(1013 mb)
SSW 12.7 mph
(SSW 20 kph)
- 10SM
10:51
Clear
66°F / 19°C 54°F / 12°C 64% 29.92 in
(1013 mb)
SSW 11.5 mph
(SSW 19 kph)
- 10SM
09:59
Clear
63°F / 17°C 55°F / 13°C 77% 29.92 in
(1013 mb)
W 10.4 mph
(W 17 kph)
- 10SM
09:51
Clear
63°F / 17°C 55°F / 13°C 77% 29.92 in
(1013 mb)
W 4.6 mph
(W 7 kph)
- 10SM
09:33
Partly Cloudy
63°F / 17°C 54°F / 12°C 73% 29.92 in
(1013 mb)
SSW 9.2 mph
(SSW 15 kph)
- 10SM
09:13
Mostly Cloudy
63°F / 17°C 54°F / 12°C 73% 29.92 in
(1013 mb)
SSW 8.1 mph
(SSW 13 kph)
- 10SM
08:53
Partly Cloudy
63°F / 17°C 57°F / 14°C 83% 29.92 in
(1013 mb)
SSW 9.2 mph
(SSW 15 kph)
- 10SM
08:33
Overcast
64°F / 18°C 57°F / 14°C 78% 29.92 in
(1013 mb)
W 10.4 mph
(W 17 kph)
- 10SM
08:13
Overcast
Light Rain
64°F / 18°C 59°F / 15°C 83% 29.92 in
(1013 mb)
SSW 9.2 mph
(SSW 15 kph)
- 10SM
07:54
Overcast
Light Rain
64°F / 18°C 61°F / 16°C 88% 29.92 in
(1013 mb)
W 4.6 mph
(W 7 kph)
0.06 in
(1.52 mm)
10SM
07:37
Overcast
Rain
64°F / 18°C 61°F / 16°C 88% 29.92 in
(1013 mb)
SSW 5.8 mph
(SSW 9 kph)
0.06 in
(1.52 mm)
7SM
06:59
Overcast
Heavy Rain
66°F / 19°C 63°F / 17°C 88% 29.92 in
(1013 mb)
W 9.2 mph
(W 15 kph)
0.13 in
(3.30 mm)
2SM
05:59
Overcast
Light Rain
70°F / 21°C 66°F / 19°C 88% 29.89 in
(1012 mb)
S 6.9 mph
(S 11 kph)
- 5SM
04:59
Overcast
Light Rain
70°F / 21°C 66°F / 19°C 88% 29.89 in
(1012 mb)
SSE 5.8 mph
(SSE 9 kph)
- 5SM
03:59
Overcast
Light Rain
68°F / 20°C 66°F / 19°C 94% 29.92 in
(1013 mb)
SSE 5.8 mph
(SSE 9 kph)
- 5SM
02:59
Mostly Cloudy
Drizzle
68°F / 20°C 64°F / 18°C 88% 29.92 in
(1013 mb)
N 4.6 mph
(N 7 kph)
- 5SM
01:59
Overcast
70°F / 21°C 64°F / 18°C 83% 29.95 in
(1014 mb)
ENE 5.8 mph
(ENE 9 kph)
- 7SM
00:59
Overcast
70°F / 21°C 64°F / 18°C 83% 29.95 in
(1014 mb)
SSE 6.9 mph
(SSE 11 kph)
- 7SM
Time Weather Temperature Dewpoint Humidity Pressure Winds Precip Visibility


Weather for websites

WeatherForYou.com, LLC is not responsible for any damages or problems caused by this service. Current weather conditions are obtained from the closest station including government and personal stations which may have varying degrees of accuracy. Weather forecasts are derived from the NOAA NDFD. Like all things, this site belongs to Jesus Christ... He just trusts us to maintain it. If you have any questions or comments email webmaster@weatherforyou.com

Copyright © 2016, WeatherForYou.com LLC. All rights reserved.